Greenland, New Hampshire, United States (03840)
Lat: 43.04N, Lon: 70.83W
Wx Zone: NHZ014
Local Info
Past Weather Observations for Wednesday, October 29, 2014

NOTE: This archive is for the closest National Weather Service station to Greenland. Information may differ from the station used for current weather conditions.

Click here for Long-term Archive

Time Weather Temperature Dewpoint Humidity Pressure Winds Precip Visibility
23:58
Partly Cloudy
48°F / 9°C 43°F / 6°C 82% 29.86 in
(1011 mb)
W 8.1 mph
(W 13 kph)
- 10SM
22:58
Mostly Cloudy
50°F / 10°C 48°F / 9°C 94% 29.83 in
(1010 mb)
SSW 5.8 mph
(SSW 9 kph)
- 10SM
21:58
Overcast
52°F / 11°C 50°F / 10°C 94% 29.83 in
(1010 mb)
SSW 6.9 mph
(SSW 11 kph)
0.00 in
(0.00 mm)
10SM
21:30
Overcast
52°F / 11°C 50°F / 10°C 94% 29.83 in
(1010 mb)
SSW 8.1 mph
(SSW 13 kph)
- 10SM
20:58
Overcast
Light Rain
52°F / 11°C 50°F / 10°C 94% 29.83 in
(1010 mb)
SW 4.6 mph
(SW 7 kph)
0.01 in
(0.25 mm)
7SM
20:42
Overcast
Light Rain
52°F / 11°C 50°F / 10°C 94% 29.83 in
(1010 mb)
SW 5.8 mph
(SW 9 kph)
- 7SM
20:14
Overcast
52°F / 11°C 50°F / 10°C 94% 29.83 in
(1010 mb)
SW 3.5 mph
(SW 6 kph)
- 10SM
19:58
Overcast
Light Rain
52°F / 11°C 50°F / 10°C 94% 29.83 in
(1010 mb)
SW 5.8 mph
(SW 9 kph)
0.04 in
(1.02 mm)
7SM
18:58
Overcast
Light Rain
54°F / 12°C 48°F / 9°C 82% 29.83 in
(1010 mb)
W 8.1 mph
(W 13 kph)
0.02 in
(0.51 mm)
7SM
17:58
Overcast
Light Rain
57°F / 14°C 46°F / 8°C 67% 29.8 in
(1009 mb)
W 8.1 mph
(W 13 kph)
0.00 in
(0.00 mm)
10SM
17:37
Overcast
Light Rain
59°F / 15°C 46°F / 8°C 63% 29.8 in
(1009 mb)
WNW 10.4 mph
(WNW 17 kph)
- 10SM
16:58
Overcast
61°F / 16°C 50°F / 10°C 68% 29.8 in
(1009 mb)
WNW 8.1 mph
(WNW 13 kph)
- 10SM
15:58
Overcast
63°F / 17°C 52°F / 11°C 68% 29.8 in
(1009 mb)
WNW 10.4 mph
(WNW 17 kph)
- 10SM
14:58
Overcast
61°F / 16°C 59°F / 15°C 94% 29.8 in
(1009 mb)
NW 6.9 mph
(NW 11 kph)
- 10SM
13:58
Mostly Cloudy
59°F / 15°C 57°F / 14°C 94% 29.77 in
(1008 mb)
SW 4.6 mph
(SW 7 kph)
- 10SM
12:58
Mostly Cloudy
57°F / 14°C 57°F / 14°C 100% 29.77 in
(1008 mb)
SW 4.6 mph
(SW 7 kph)
- 10SM
12:43
Mostly Cloudy
57°F / 14°C 57°F / 14°C 100% 29.8 in
(1009 mb)
SSW 5.8 mph
(SSW 9 kph)
- 10SM
12:28
Overcast
57°F / 14°C 55°F / 13°C 94% 29.8 in
(1009 mb)
SW 3.5 mph
(SW 6 kph)
- 7SM
11:58
Overcast
Fog And Mist
55°F / 13°C 55°F / 13°C 100% 29.8 in
(1009 mb)
SSW 3.5 mph
(SSW 6 kph)
- 6SM
11:28
Overcast
Fog And Mist
55°F / 13°C 54°F / 12°C 94% 29.8 in
(1009 mb)
W 4.6 mph
(W 7 kph)
- 3SM
10:58
Overcast
Fog And Mist
55°F / 13°C 54°F / 12°C 94% 29.8 in
(1009 mb)
W 4.6 mph
(W 7 kph)
- 1 1/4SM
09:58
Overcast
Fog And Mist
54°F / 12°C 54°F / 12°C 100% 29.83 in
(1010 mb)
W 3.5 mph
(W 6 kph)
- 1SM
09:28
Overcast
54°F / 12°C 52°F / 11°C 94% 29.83 in
(1010 mb)
SSW 3.5 mph
(SSW 6 kph)
- 9SM
08:58
Overcast
Fog And Mist
54°F / 12°C 52°F / 11°C 94% 29.83 in
(1010 mb)
SSW 4.6 mph
(SSW 7 kph)
- 1SM
07:58
Overcast
Fog And Mist
52°F / 11°C 52°F / 11°C 100% 29.86 in
(1011 mb)
SSE 2.3 mph
(SSE 4 kph)
- 5/8SM
07:43
Obscured
Fog
52°F / 11°C 52°F / 11°C 100% 29.86 in
(1011 mb)
SW 1.2 mph
(SW 2 kph)
- 1/4SM
06:58
Obscured
Fog
52°F / 11°C 50°F / 10°C 94% 29.86 in
(1011 mb)
Calm - 1/16SM
05:58
Obscured
Fog
52°F / 11°C 50°F / 10°C 94% 29.86 in
(1011 mb)
WNW 2.3 mph
(WNW 4 kph)
- 1/8SM
05:13
Obscured
Fog
52°F / 11°C 50°F / 10°C 94% 29.86 in
(1011 mb)
NW 2.3 mph
(NW 4 kph)
- 1/8SM
04:58
Obscured
Fog
52°F / 11°C 50°F / 10°C 94% 29.86 in
(1011 mb)
Calm - 1/16SM
04:43
Obscured
Fog
52°F / 11°C 50°F / 10°C 94% 29.86 in
(1011 mb)
Calm - 1/16SM
03:58
Obscured
Fog
52°F / 11°C 50°F / 10°C 94% 29.89 in
(1012 mb)
Calm - 1/16SM
02:58
Obscured
Fog
52°F / 11°C 50°F / 10°C 94% 29.89 in
(1012 mb)
Calm - 1/16SM
01:58
Obscured
Fog
52°F / 11°C 50°F / 10°C 94% 29.89 in
(1012 mb)
Calm - 1/8SM
01:33
Obscured
Fog
52°F / 11°C 50°F / 10°C 94% 29.89 in
(1012 mb)
NE 1.2 mph
(NE 2 kph)
- 3/8SM
01:13
Obscured
Fog
52°F / 11°C 50°F / 10°C 94% 29.92 in
(1013 mb)
N 4.6 mph
(N 7 kph)
- 1/2SM
00:58
Overcast
Fog And Mist
52°F / 11°C 50°F / 10°C 94% 29.92 in
(1013 mb)
N 3.5 mph
(N 6 kph)
- 3/4SM
00:28
Overcast
Fog And Mist
52°F / 11°C 50°F / 10°C 94% 29.92 in
(1013 mb)
NNW 2.3 mph
(NNW 4 kph)
- 3/4SM
Time Weather Temperature Dewpoint Humidity Pressure Winds Precip Visibility


Weather for websites

WeatherForYou.com, LLC is not responsible for any damages or problems caused by this service. Current weather conditions are obtained from the closest station including government and personal stations which may have varying degrees of accuracy. Weather forecasts are derived from the NOAA NDFD. Like all things, this site belongs to Jesus Christ... He just trusts me to maintain it. If you have any questions or comments email webmaster@weatherforyou.com

Copyright © 2014, WeatherForYou.com LLC. All rights reserved.